TimeEDT,TemperatureF,Dew PointF,Humidity,Sea Level PressureIn,VisibilityMPH,Wind Direction,Wind SpeedMPH,Gust SpeedMPH,PrecipitationIn,Events,Conditions,WindDirDegrees,DateUTC
12:53 AM,69.1,64.0,84,29.78,8.0,SSW,3.5,-,N/A,,Clear,210,2013-08-07 04:53:00
1:53 AM,71.1,66.0,84,29.75,8.0,Variable,5.8,-,N/A,,Clear,0,2013-08-07 05:53:00
2:53 AM,72.0,66.0,81,29.74,9.0,SSW,6.9,-,0.00,,Mostly Cloudy,210,2013-08-07 06:53:00
3:53 AM,71.1,66.9,87,29.73,5.0,SW,6.9,-,0.02,Rain-Thunderstorm,Light Rain,220,2013-08-07 07:53:00
4:23 AM,68.0,62.6,83,29.75,5.0,WSW,19.6,28.8,0.10,Rain,Rain,250,2013-08-07 08:23:00
4:31 AM,66.2,62.6,88,29.73,5.0,WSW,10.4,32.2,0.13,Rain-Thunderstorm,Thunderstorms and Rain,250,2013-08-07 08:31:00
4:51 AM,64.4,62.6,94,29.67,10.0,South,4.6,-,0.13,Rain,Light Rain,180,2013-08-07 08:51:00
4:53 AM,64.9,62.1,90,29.67,10.0,South,5.8,-,0.13,,Scattered Clouds,180,2013-08-07 08:53:00
5:53 AM,64.0,61.0,90,29.68,10.0,Calm,Calm,-,N/A,,Clear,0,2013-08-07 09:53:00
6:53 AM,64.0,60.1,87,29.71,10.0,Calm,Calm,-,N/A,,Scattered Clouds,0,2013-08-07 10:53:00
7:53 AM,64.0,61.0,90,29.75,10.0,WSW,8.1,-,N/A,,Scattered Clouds,250,2013-08-07 11:53:00
8:53 AM,68.0,61.0,78,29.75,10.0,West,9.2,-,N/A,,Scattered Clouds,260,2013-08-07 12:53:00
9:58 AM,69.8,62.6,78,29.77,10.0,West,9.2,-,N/A,,Mostly Cloudy,270,2013-08-07 13:58:00
10:53 AM,71.1,61.0,70,29.78,10.0,NW,3.5,-,N/A,,Mostly Cloudy,310,2013-08-07 14:53:00
11:53 AM,71.1,60.1,68,29.80,10.0,West,5.8,-,N/A,,Mostly Cloudy,280,2013-08-07 15:53:00
12:34 PM,71.6,60.8,69,29.81,10.0,West,4.6,-,N/A,,Mostly Cloudy,260,2013-08-07 16:34:00
12:53 PM,73.0,59.0,61,29.81,10.0,SW,5.8,-,N/A,,Mostly Cloudy,230,2013-08-07 16:53:00
1:53 PM,75.0,60.1,60,29.82,10.0,West,8.1,-,N/A,,Mostly Cloudy,280,2013-08-07 17:53:00
2:53 PM,75.9,60.1,58,29.82,10.0,NW,12.7,18.4,N/A,,Mostly Cloudy,320,2013-08-07 18:53:00
3:53 PM,77.0,61.0,58,29.83,10.0,WNW,16.1,20.7,N/A,,Mostly Cloudy,290,2013-08-07 19:53:00
4:28 PM,71.6,60.8,69,29.86,10.0,WNW,13.8,-,N/A,,Overcast,300,2013-08-07 20:28:00
4:53 PM,70.0,60.1,71,29.86,10.0,NW,12.7,-,N/A,,Overcast,310,2013-08-07 20:53:00
5:53 PM,71.1,59.0,66,29.86,10.0,NNW,8.1,-,N/A,,Mostly Cloudy,330,2013-08-07 21:53:00
6:49 PM,71.6,60.8,69,29.88,10.0,North,6.9,-,N/A,,Mostly Cloudy,350,2013-08-07 22:49:00
6:53 PM,72.0,60.1,66,29.88,10.0,North,6.9,-,N/A,,Mostly Cloudy,350,2013-08-07 22:53:00
7:53 PM,69.1,60.1,73,29.90,10.0,North,6.9,-,N/A,,Scattered Clouds,360,2013-08-07 23:53:00
8:53 PM,68.0,59.0,73,29.91,10.0,NNE,5.8,-,N/A,,Mostly Cloudy,20,2013-08-08 00:53:00
9:46 PM,66.2,59.0,78,29.95,10.0,North,13.8,19.6,N/A,,Mostly Cloudy,10,2013-08-08 01:46:00
9:53 PM,66.9,59.0,76,29.95,10.0,North,12.7,-,N/A,,Mostly Cloudy,360,2013-08-08 01:53:00
10:25 PM,66.2,55.4,68,29.96,10.0,North,8.1,-,N/A,,Overcast,360,2013-08-08 02:25:00
10:53 PM,64.9,52.0,63,29.96,10.0,North,8.1,-,N/A,,Partly Cloudy,360,2013-08-08 02:53:00
11:53 PM,64.0,52.0,65,29.99,10.0,North,8.1,-,N/A,,Mostly Cloudy,350,2013-08-08 03:53:00